Location: Betpouey
(42.8833°N, 0.0333°E)
Time: 22:15:57
(UTC+00:00)

USA 238 DEB - Pass Details

Date: 01 December 2020
Orbit: 997 x 1215 km, 63.4° (Epoch: 11 January)

Event Time Altitude Azimuth Distance (km) Brightness Sun altitude
Rises 18:49:27 0° 219° (SW) 3,715 7.2 -25.5°
Reaches altitude 10° 18:52:00 10° 221° (SW) 2,781 6.5 -26.0°
Maximum altitude 18:58:33 78° 307° (NW) 1,064 3.6 -27.2°
Enters shadow 19:00:37 48° 23° (NNE) 1,353 4.0 -27.6°
